Time,TemperatureF,DewpointF,PressureIn,WindDirection,WindDirectionDegrees,WindSpeedMPH,WindSpeedGustMPH,Humidity,HourlyPrecipIn,Conditions,Clouds,dailyrainin,SoftwareType,DateUTC
2016-02-14 00:01:00,56.7,51.6,30.12,ESE,122,0.0,0.0,83,0.00,,,0.00,meteobridge,2016-02-14 06:01:00,
2016-02-14 00:06:00,56.7,51.6,30.11,South,175,2.2,2.9,83,0.00,,,0.00,meteobridge,2016-02-14 06:06:00,
2016-02-14 00:11:00,56.5,51.4,30.11,SSW,203,0.0,2.9,83,0.00,,,0.00,meteobridge,2016-02-14 06:11:00,
2016-02-14 00:17:00,56.5,51.6,30.11,WNW,300,0.0,5.1,84,0.00,,,0.00,meteobridge,2016-02-14 06:17:00,
2016-02-14 00:22:00,56.5,51.6,30.10,ESE,119,0.0,0.0,84,0.00,,,0.00,meteobridge,2016-02-14 06:22:00,
2016-02-14 00:27:00,56.5,51.6,30.10,SE,139,0.0,5.4,84,0.00,,,0.00,meteobridge,2016-02-14 06:27:00,
2016-02-14 00:32:00,56.5,51.6,30.11,SE,130,1.3,2.0,84,0.00,,,0.00,meteobridge,2016-02-14 06:32:00,
2016-02-14 00:37:00,56.5,52.0,30.11,SE,129,0.0,2.7,85,0.00,,,0.00,meteobridge,2016-02-14 06:37:00,
2016-02-14 00:42:00,56.3,51.8,30.10,ESE,113,1.3,6.0,85,0.00,,,0.00,meteobridge,2016-02-14 06:42:00,
2016-02-14 00:47:00,56.3,51.8,30.10,SE,139,0.0,4.0,85,0.00,,,0.00,meteobridge,2016-02-14 06:47:00,
2016-02-14 00:57:00,56.1,51.6,30.10,SSW,199,0.0,2.7,85,0.00,,,0.00,meteobridge,2016-02-14 06:57:00,
2016-02-14 01:02:00,55.9,51.8,30.09,SE,143,1.8,6.0,86,0.00,,,0.00,meteobridge,2016-02-14 07:02:00,
2016-02-14 01:07:00,55.9,51.8,30.09,ESE,108,0.0,0.0,86,0.00,,,0.00,meteobridge,2016-02-14 07:07:00,
2016-02-14 01:12:00,55.9,51.8,30.09,ESE,119,0.0,2.5,86,0.00,,,0.00,meteobridge,2016-02-14 07:12:00,
2016-02-14 01:17:00,55.8,51.6,30.09,ESE,119,0.0,0.0,86,0.00,,,0.00,meteobridge,2016-02-14 07:17:00,
2016-02-14 01:22:00,55.6,51.8,30.09,SE,139,0.0,4.7,87,0.00,,,0.00,meteobridge,2016-02-14 07:22:00,
2016-02-14 01:27:00,55.6,51.8,30.09,South,172,0.0,2.5,87,0.00,,,0.00,meteobridge,2016-02-14 07:27:00,
2016-02-14 01:32:00,55.6,52.2,30.09,South,175,0.0,6.0,88,0.00,,,0.00,meteobridge,2016-02-14 07:32:00,
2016-02-14 01:37:00,55.6,52.2,30.08,ESE,115,2.2,2.9,88,0.00,,,0.00,meteobridge,2016-02-14 07:37:00,
2016-02-14 01:43:00,55.6,52.2,30.08,SSE,158,0.0,0.0,88,0.00,,,0.00,meteobridge,2016-02-14 07:43:00,
2016-02-14 01:48:00,55.6,52.2,30.08,SE,130,0.0,2.7,88,0.00,,,0.00,meteobridge,2016-02-14 07:48:00,
2016-02-14 01:53:00,55.2,51.8,30.08,SE,132,0.0,4.9,88,0.00,,,0.00,meteobridge,2016-02-14 07:53:00,
2016-02-14 01:58:00,55.2,52.0,30.08,SE,142,1.6,4.0,89,0.00,,,0.00,meteobridge,2016-02-14 07:58:00,
2016-02-14 02:03:00,55.2,52.0,30.08,SSE,161,0.0,2.2,89,0.00,,,0.00,meteobridge,2016-02-14 08:03:00,
2016-02-14 02:08:00,55.2,52.0,30.08,SSE,153,0.0,0.0,89,0.00,,,0.00,meteobridge,2016-02-14 08:08:00,
2016-02-14 02:13:00,55.2,52.0,30.08,SSE,153,0.0,0.0,89,0.00,,,0.00,meteobridge,2016-02-14 08:13:00,
2016-02-14 02:18:00,55.4,52.2,30.07,SSE,153,0.0,0.0,89,0.00,,,0.00,meteobridge,2016-02-14 08:18:00,
2016-02-14 02:23:00,55.6,52.3,30.07,SSE,153,0.0,0.0,89,0.00,,,0.00,meteobridge,2016-02-14 08:23:00,
2016-02-14 02:29:00,55.6,52.3,30.07,SSE,153,0.0,0.0,89,0.00,,,0.00,meteobridge,2016-02-14 08:29:00,
2016-02-14 02:34:00,55.8,52.5,30.07,SSE,153,0.0,0.0,89,0.00,,,0.00,meteobridge,2016-02-14 08:34:00,
2016-02-14 02:44:00,55.8,52.5,30.07,East,98,0.0,5.1,89,0.00,,,0.00,meteobridge,2016-02-14 08:44:00,
2016-02-14 02:49:00,55.9,52.5,30.07,East,98,0.0,0.0,88,0.00,,,0.00,meteobridge,2016-02-14 08:49:00,
2016-02-14 02:54:00,55.9,52.5,30.07,East,98,0.0,0.0,88,0.00,,,0.00,meteobridge,2016-02-14 08:54:00,
2016-02-14 03:00:00,55.9,52.5,30.07,SSW,192,0.0,0.0,88,0.00,,,0.00,meteobridge,2016-02-14 09:00:00,
2016-02-14 03:05:00,55.9,52.5,30.06,SSW,192,0.0,0.0,88,0.00,,,0.00,meteobridge,2016-02-14 09:05:00,
2016-02-14 03:10:00,56.1,52.7,30.06,SSW,192,0.0,0.0,88,0.00,,,0.00,meteobridge,2016-02-14 09:10:00,
2016-02-14 03:15:00,55.9,52.5,30.06,SSW,192,0.0,0.0,88,0.00,,,0.00,meteobridge,2016-02-14 09:15:00,
2016-02-14 03:20:00,55.9,52.5,30.05,SSW,192,0.0,0.0,88,0.00,,,0.00,meteobridge,2016-02-14 09:20:00,
2016-02-14 03:25:00,55.9,52.5,30.05,SSW,192,0.0,0.0,88,0.00,,,0.00,meteobridge,2016-02-14 09:25:00,
2016-02-14 03:30:00,55.9,52.5,30.05,SE,146,2.7,4.0,88,0.00,,,0.00,meteobridge,2016-02-14 09:30:00,
2016-02-14 03:35:00,55.9,52.5,30.04,SW,215,0.0,0.0,88,0.00,,,0.00,meteobridge,2016-02-14 09:35:00,
2016-02-14 03:40:00,55.9,52.5,30.03,SW,215,0.0,0.0,88,0.00,,,0.00,meteobridge,2016-02-14 09:40:00,
2016-02-14 03:45:00,55.9,52.5,30.03,ESE,122,0.0,3.6,88,0.00,,,0.00,meteobridge,2016-02-14 09:45:00,
2016-02-14 03:50:00,55.9,52.5,30.03,South,171,0.0,4.3,88,0.00,,,0.00,meteobridge,2016-02-14 09:50:00,
2016-02-14 03:55:00,56.1,52.7,30.03,South,175,0.0,4.7,88,0.00,,,0.00,meteobridge,2016-02-14 09:55:00,
2016-02-14 04:00:00,56.1,52.7,30.03,SE,133,2.9,4.0,88,0.00,,,0.00,meteobridge,2016-02-14 10:00:00,
2016-02-14 04:05:00,56.3,52.9,30.02,SSE,158,5.4,5.4,88,0.00,,,0.00,meteobridge,2016-02-14 10:05:00,
2016-02-14 04:10:00,56.3,52.9,30.03,SSW,212,6.0,6.7,88,0.00,,,0.00,meteobridge,2016-02-14 10:10:00,
2016-02-14 04:15:00,56.3,52.9,30.03,SSW,194,2.0,2.9,88,0.00,,,0.00,meteobridge,2016-02-14 10:15:00,
2016-02-14 04:20:00,56.3,52.9,30.02,SSE,151,0.0,6.0,88,0.00,,,0.00,meteobridge,2016-02-14 10:20:00,
2016-02-14 04:26:00,56.3,52.9,30.01,SSE,161,2.9,6.0,88,0.00,,,0.00,meteobridge,2016-02-14 10:26:00,
2016-02-14 04:31:00,56.3,52.9,30.01,ENE,77,0.0,4.9,88,0.00,,,0.00,meteobridge,2016-02-14 10:31:00,
2016-02-14 04:35:00,56.3,52.9,30.01,East,97,0.4,5.8,88,0.00,,,0.00,meteobridge,2016-02-14 10:35:00,
2016-02-14 04:40:00,56.1,52.7,30.00,ESE,116,0.0,6.5,88,0.00,,,0.00,meteobridge,2016-02-14 10:40:00,
2016-02-14 04:46:00,56.3,52.9,30.01,SE,142,1.6,8.1,88,0.00,,,0.00,meteobridge,2016-02-14 10:46:00,
2016-02-14 04:51:00,56.3,53.1,30.01,SE,139,1.1,4.5,89,0.00,,,0.00,meteobridge,2016-02-14 10:51:00,
2016-02-14 04:56:00,56.5,53.2,30.01,SSE,157,1.6,4.9,89,0.00,,,0.00,meteobridge,2016-02-14 10:56:00,
2016-02-14 05:00:00,56.5,52.9,30.01,SSE,156,1.1,6.5,88,0.00,,,0.00,meteobridge,2016-02-14 11:00:00,
2016-02-14 05:05:00,56.7,53.1,30.01,SSE,157,0.0,9.2,88,0.00,,,0.00,meteobridge,2016-02-14 11:05:00,
2016-02-14 05:10:00,56.8,53.2,30.01,SE,129,0.0,5.6,88,0.00,,,0.00,meteobridge,2016-02-14 11:10:00,
2016-02-14 05:15:00,56.8,53.2,30.01,SW,215,2.7,8.3,88,0.00,,,0.00,meteobridge,2016-02-14 11:15:00,
2016-02-14 05:21:00,56.8,53.2,30.01,South,174,1.8,6.9,88,0.00,,,0.00,meteobridge,2016-02-14 11:21:00,
2016-02-14 05:26:00,57.0,53.4,30.01,South,184,0.0,7.4,88,0.00,,,0.00,meteobridge,2016-02-14 11:26:00,
2016-02-14 05:31:00,56.8,53.1,30.01,South,171,3.4,8.5,87,0.00,,,0.00,meteobridge,2016-02-14 11:31:00,
2016-02-14 05:36:00,56.8,53.1,30.00,SSE,154,0.0,5.4,87,0.00,,,0.00,meteobridge,2016-02-14 11:36:00,
2016-02-14 05:41:00,57.0,53.2,30.00,ESE,118,1.3,7.4,87,0.00,,,0.00,meteobridge,2016-02-14 11:41:00,
2016-02-14 05:46:00,57.0,53.2,30.00,SE,143,0.7,6.0,87,0.00,,,0.00,meteobridge,2016-02-14 11:46:00,
2016-02-14 05:51:00,56.8,53.1,30.00,ESE,109,1.3,6.9,87,0.00,,,0.00,meteobridge,2016-02-14 11:51:00,
2016-02-14 05:56:00,56.8,53.1,30.01,SSW,192,0.0,3.8,87,0.00,,,0.00,meteobridge,2016-02-14 11:56:00,
2016-02-14 06:01:00,56.8,53.1,30.01,SW,219,3.1,4.5,87,0.00,,,0.00,meteobridge,2016-02-14 12:01:00,
2016-02-14 06:06:00,56.8,53.1,30.00,South,189,0.2,4.7,87,0.00,,,0.00,meteobridge,2016-02-14 12:06:00,
2016-02-14 06:11:00,56.7,52.9,30.01,SW,222,2.5,6.9,87,0.00,,,0.00,meteobridge,2016-02-14 12:11:00,
2016-02-14 06:21:00,56.7,52.9,30.01,SW,219,1.8,5.6,87,0.00,,,0.00,meteobridge,2016-02-14 12:21:00,
2016-02-14 06:26:00,56.7,52.9,30.00,SSE,163,2.5,7.6,87,0.00,,,0.00,meteobridge,2016-02-14 12:26:00,
2016-02-14 06:31:00,56.7,52.9,30.01,SSW,202,4.5,5.6,87,0.00,,,0.00,meteobridge,2016-02-14 12:31:00,
2016-02-14 06:36:00,56.5,52.7,30.01,SSW,208,0.0,4.9,87,0.00,,,0.00,meteobridge,2016-02-14 12:36:00,
2016-02-14 06:46:00,56.3,52.5,30.01,SSW,198,1.1,4.7,87,0.00,,,0.00,meteobridge,2016-02-14 12:46:00,
2016-02-14 06:52:00,56.3,52.9,30.01,WSW,243,2.7,4.3,88,0.00,,,0.00,meteobridge,2016-02-14 12:52:00,
2016-02-14 06:57:00,56.1,52.7,30.00,South,185,1.1,4.5,88,0.00,,,0.00,meteobridge,2016-02-14 12:57:00,
2016-02-14 07:02:00,55.9,52.5,30.00,SW,223,1.1,4.9,88,0.00,,,0.00,meteobridge,2016-02-14 13:02:00,
2016-02-14 07:07:00,55.8,52.3,30.00,South,191,6.3,6.5,88,0.00,,,0.00,meteobridge,2016-02-14 13:07:00,
2016-02-14 07:12:00,55.6,52.2,29.99,SSE,150,0.0,4.7,88,0.00,,,0.00,meteobridge,2016-02-14 13:12:00,
2016-02-14 07:17:00,55.2,51.8,29.99,SSE,154,0.0,4.0,88,0.00,,,0.00,meteobridge,2016-02-14 13:17:00,
2016-02-14 07:22:00,55.0,51.8,29.99,SSW,213,0.0,3.1,89,0.00,,,0.00,meteobridge,2016-02-14 13:22:00,
2016-02-14 07:27:00,55.0,51.8,29.99,SW,215,0.0,0.0,89,0.00,,,0.00,meteobridge,2016-02-14 13:27:00,
2016-02-14 07:37:00,55.0,51.8,30.00,South,188,0.0,0.0,89,0.00,,,0.00,meteobridge,2016-02-14 13:37:00,
2016-02-14 07:43:00,55.0,52.2,30.00,SSW,213,0.0,2.9,90,0.00,,,0.00,meteobridge,2016-02-14 13:43:00,
2016-02-14 07:48:00,55.0,52.2,29.99,ESE,118,0.0,3.6,90,0.00,,,0.00,meteobridge,2016-02-14 13:48:00,
2016-02-14 07:53:00,55.0,52.2,29.99,South,181,0.0,4.5,90,0.00,,,0.00,meteobridge,2016-02-14 13:53:00,
2016-02-14 07:58:00,55.2,52.3,29.99,SSW,202,2.0,2.0,90,0.00,,,0.00,meteobridge,2016-02-14 13:58:00,
2016-02-14 08:03:00,55.2,52.3,29.99,WSW,244,0.0,2.7,90,0.00,,,0.00,meteobridge,2016-02-14 14:03:00,
2016-02-14 08:08:00,55.6,52.7,29.98,SE,140,0.0,4.9,90,0.00,,,0.00,meteobridge,2016-02-14 14:08:00,
2016-02-14 08:13:00,55.8,52.9,29.99,East,101,0.0,1.8,90,0.00,,,0.00,meteobridge,2016-02-14 14:13:00,
2016-02-14 08:18:00,55.9,53.1,29.98,SSE,150,0.0,0.0,90,0.00,,,0.00,meteobridge,2016-02-14 14:18:00,
2016-02-14 08:23:00,56.1,53.2,29.99,SSE,150,0.4,4.7,90,0.00,,,0.00,meteobridge,2016-02-14 14:23:00,
2016-02-14 08:28:00,56.5,53.2,29.98,SE,146,1.6,3.4,89,0.00,,,0.00,meteobridge,2016-02-14 14:28:00,
2016-02-14 08:34:00,56.8,53.6,29.98,South,174,0.0,2.9,89,0.00,,,0.00,meteobridge,2016-02-14 14:34:00,
2016-02-14 08:38:00,57.4,54.1,29.99,SSW,199,3.1,5.6,89,0.00,,,0.00,meteobridge,2016-02-14 14:38:00,
2016-02-14 08:44:00,57.6,54.0,29.99,South,170,0.0,0.0,88,0.00,,,0.00,meteobridge,2016-02-14 14:44:00,
2016-02-14 08:49:00,58.1,54.3,29.98,South,191,8.7,10.7,87,0.00,,,0.00,meteobridge,2016-02-14 14:49:00,
2016-02-14 08:54:00,58.5,54.3,29.99,SE,146,1.3,9.6,86,0.00,,,0.00,meteobridge,2016-02-14 14:54:00,
2016-02-14 08:59:00,59.0,54.9,29.99,South,177,0.7,7.8,86,0.00,,,0.00,meteobridge,2016-02-14 14:59:00,
2016-02-14 09:04:00,59.5,55.0,29.99,ESE,120,0.4,4.9,85,0.00,,,0.00,meteobridge,2016-02-14 15:04:00,
2016-02-14 09:09:00,59.7,54.5,29.98,SSE,163,7.4,8.9,83,0.00,,,0.00,meteobridge,2016-02-14 15:09:00,
2016-02-14 09:14:00,60.4,55.2,29.98,South,191,3.4,8.1,83,0.00,,,0.00,meteobridge,2016-02-14 15:14:00,
2016-02-14 09:19:00,60.6,55.0,29.99,SSW,194,5.4,10.3,82,0.00,,,0.00,meteobridge,2016-02-14 15:19:00,
2016-02-14 09:24:00,60.6,54.7,29.98,SSW,201,7.2,12.5,81,0.00,,,0.00,meteobridge,2016-02-14 15:24:00,
2016-02-14 09:29:00,61.0,55.0,29.98,SW,227,4.3,10.5,81,0.00,,,0.00,meteobridge,2016-02-14 15:29:00,
2016-02-14 09:34:00,61.2,54.9,29.98,SSW,209,3.8,14.3,80,0.00,,,0.00,meteobridge,2016-02-14 15:34:00,
2016-02-14 09:39:00,61.2,54.9,29.98,SSW,201,5.4,10.3,80,0.00,,,0.00,meteobridge,2016-02-14 15:39:00,
2016-02-14 09:44:00,61.0,54.7,29.98,WSW,248,5.8,10.7,80,0.00,,,0.00,meteobridge,2016-02-14 15:44:00,
2016-02-14 09:54:00,61.3,54.9,29.98,SSW,202,5.6,10.7,79,0.00,,,0.00,meteobridge,2016-02-14 15:54:00,
2016-02-14 09:59:00,61.5,54.7,29.98,SW,219,6.5,11.6,78,0.00,,,0.00,meteobridge,2016-02-14 15:59:00,
2016-02-14 10:04:00,61.5,54.7,29.98,South,175,2.0,11.2,78,0.00,,,0.00,meteobridge,2016-02-14 16:04:00,
2016-02-14 10:09:00,61.9,54.9,29.96,SSW,195,4.5,8.5,78,0.00,,,0.00,meteobridge,2016-02-14 16:09:00,
2016-02-14 10:19:00,62.4,54.3,29.98,SE,125,5.8,16.8,75,0.00,,,0.00,meteobridge,2016-02-14 16:19:00,
2016-02-14 10:24:00,62.4,54.3,29.98,WSW,240,4.3,15.9,75,0.00,,,0.00,meteobridge,2016-02-14 16:24:00,
2016-02-14 10:29:00,62.6,54.9,29.97,South,185,3.6,10.1,76,0.00,,,0.00,meteobridge,2016-02-14 16:29:00,
2016-02-14 10:34:00,63.0,54.9,29.97,South,177,7.6,11.0,75,0.00,,,0.00,meteobridge,2016-02-14 16:34:00,
2016-02-14 10:44:00,63.3,54.9,29.97,SSW,210,0.0,11.0,74,0.00,,,0.00,meteobridge,2016-02-14 16:44:00,
2016-02-14 10:49:00,63.3,54.9,29.97,SSW,213,6.3,13.4,74,0.00,,,0.00,meteobridge,2016-02-14 16:49:00,
2016-02-14 10:54:00,63.3,54.9,29.97,WSW,237,8.5,10.7,74,0.00,,,0.00,meteobridge,2016-02-14 16:54:00,
2016-02-14 10:59:00,63.0,54.5,29.97,South,180,8.7,15.2,74,0.00,,,0.00,meteobridge,2016-02-14 16:59:00,
2016-02-14 11:04:00,63.1,54.7,29.97,SSE,158,6.7,12.3,74,0.00,,,0.00,meteobridge,2016-02-14 17:04:00,
2016-02-14 11:09:00,63.3,54.9,29.97,West,261,7.2,14.8,74,0.00,,,0.00,meteobridge,2016-02-14 17:09:00,
2016-02-14 11:14:00,63.3,54.9,29.97,SSW,210,4.3,13.0,74,0.00,,,0.00,meteobridge,2016-02-14 17:14:00,
2016-02-14 11:34:00,64.6,55.0,29.95,WSW,250,8.9,13.4,71,0.00,,,0.00,meteobridge,2016-02-14 17:34:00,
2016-02-14 11:39:00,64.8,55.2,29.96,SSW,206,2.9,12.3,71,0.00,,,0.00,meteobridge,2016-02-14 17:39:00,
2016-02-14 11:45:00,64.9,55.4,29.94,SW,234,3.4,10.1,71,0.00,,,0.00,meteobridge,2016-02-14 17:45:00,
2016-02-14 11:50:00,65.1,55.4,29.96,SSE,158,6.9,9.8,71,0.00,,,0.00,meteobridge,2016-02-14 17:50:00,
2016-02-14 11:55:00,65.3,55.2,29.94,South,170,10.1,11.0,70,0.00,,,0.00,meteobridge,2016-02-14 17:55:00,
2016-02-14 12:00:00,65.7,54.9,29.95,SSE,168,7.6,13.0,68,0.00,,,0.00,meteobridge,2016-02-14 18:00:00,
2016-02-14 12:05:00,65.8,55.0,29.94,South,184,8.1,10.7,68,0.00,,,0.00,meteobridge,2016-02-14 18:05:00,
2016-02-14 12:10:00,66.0,55.2,29.93,WSW,250,3.1,12.3,68,0.00,,,0.00,meteobridge,2016-02-14 18:10:00,
2016-02-14 12:15:00,66.0,55.2,29.94,WSW,248,6.5,12.3,68,0.00,,,0.00,meteobridge,2016-02-14 18:15:00,
2016-02-14 12:20:00,65.7,54.9,29.95,South,181,3.4,11.4,68,0.00,,,0.00,meteobridge,2016-02-14 18:20:00,
2016-02-14 12:25:00,65.3,54.5,29.94,WSW,237,2.0,11.6,68,0.00,,,0.00,meteobridge,2016-02-14 18:25:00,
2016-02-14 12:30:00,65.7,55.2,29.93,SW,236,2.5,7.4,69,0.00,,,0.00,meteobridge,2016-02-14 18:30:00,
2016-02-14 12:35:00,65.8,55.4,29.92,SSE,164,4.9,7.4,69,0.00,,,0.00,meteobridge,2016-02-14 18:35:00,
2016-02-14 12:40:00,66.0,54.7,29.91,South,188,8.5,10.3,67,0.00,,,0.00,meteobridge,2016-02-14 18:40:00,
2016-02-14 12:45:00,66.4,55.0,29.92,SW,220,5.4,9.8,67,0.00,,,0.00,meteobridge,2016-02-14 18:45:00,
2016-02-14 12:50:00,66.6,54.9,29.92,SSE,164,2.9,9.4,66,0.00,,,0.00,meteobridge,2016-02-14 18:50:00,
2016-02-14 12:55:00,66.9,55.6,29.91,SW,225,3.4,9.4,67,0.00,,,0.00,meteobridge,2016-02-14 18:55:00,
2016-02-14 13:00:00,67.5,55.2,29.92,South,171,10.1,10.1,65,0.00,,,0.00,meteobridge,2016-02-14 19:00:00,